Terminal Aerodrome Forecast
Issued by NWS Indianapolis, IN

Home | Current Version | Previous Version | Text Only | Print | Product List | Glossary On
Versions: 1 2 3 4 5 6 7 8 9 10 11 12 13 14 15 16 17 18 19 20 21 22 23 24 25 26 27 28 29 30 31 32 33 34
000
FTUS43 KIND 260200 AAB
TAFIND
TAF AMD
KIND 260224Z 2602/2706 03017G29KT P6SM -SN SCT014 OVC020
     FM260800 02012G22KT P6SM OVC025
     FM261200 01009KT P6SM OVC030
     FM261500 32008KT P6SM SCT025 BKN150=

USA.gov is the U.S. government's official web portal to all federal, state and local government web resources and services.